sat.trackr.live / text

‹ back to catalog

STARLINK-34620

NORAD 64803 · 2025-150P

PAYLOAD ACTIVE UNKNOWN

§ Identity

Operator
Country
US
Launch date
2025-07-16
Launch site
AFWTR
Launch vehicle
Mass (kg)
RCS (m²)

Purposes: comms

External: N2YO · Heavens-Above · Gunter

§ Orbital elements

Epoch: 2026-09-20T13:37:50.199168Z

Period
96.11 min
Inclination
70.0044°
Eccentricity
0.0002913
Mean motion
14.98337646 rev/d
Perigee alt
570.0 km
Apogee alt
574.1 km
Semi-major
6,950.2 km
B*
2.5741e-4
RAAN
3.2533°
Arg perigee
266.8143°
Mean anomaly
93.2683°
Rev number
6,570

§ Raw data

STARLINK-346201 64803U 25150P   26263.56794212  .00002980  00000+0  25741-3 0  99992 64803  70.0044   3.2533 0002913 266.8143  93.2683 14.98337646 65709

JSON: /api/v1/satellites/64803 · /tle

For live sub-satellite position, see the globe view (requires WebGL).

§ Visibility from observer

Set your observer location to see the next 7 days of passes ≥ 10°. The values pass through the URL so the page stays shareable.

No JS? Fill the form by hand. The geolocation button needs JavaScript.